TimeEDT,TemperatureF,Dew PointF,Humidity,Sea Level PressureIn,VisibilityMPH,Wind Direction,Wind SpeedMPH,Gust SpeedMPH,PrecipitationIn,Events,Conditions,WindDirDegrees,DateUTC
12:53 AM,45.0,39.0,80,30.25,10.0,WSW,6.9,-,N/A,,Clear,240,2013-10-10 04:53:00
1:53 AM,48.9,37.0,64,30.23,10.0,West,6.9,-,N/A,,Clear,280,2013-10-10 05:53:00
2:53 AM,48.0,35.1,61,30.22,10.0,WSW,4.6,-,N/A,,Clear,250,2013-10-10 06:53:00
3:53 AM,48.0,35.1,61,30.22,10.0,West,9.2,-,N/A,,Clear,270,2013-10-10 07:53:00
4:53 AM,46.9,35.1,63,30.21,10.0,West,8.1,-,N/A,,Clear,270,2013-10-10 08:53:00
5:53 AM,45.0,35.1,68,30.21,10.0,West,6.9,-,N/A,,Clear,260,2013-10-10 09:53:00
6:53 AM,45.0,35.1,68,30.22,10.0,WSW,5.8,-,N/A,,Clear,240,2013-10-10 10:53:00
7:53 AM,46.9,36.0,66,30.23,10.0,WSW,4.6,-,N/A,,Clear,240,2013-10-10 11:53:00
8:53 AM,50.0,37.9,63,30.23,10.0,West,6.9,-,N/A,,Clear,260,2013-10-10 12:53:00
9:53 AM,55.0,39.9,57,30.22,10.0,West,8.1,-,N/A,,Clear,270,2013-10-10 13:53:00
10:53 AM,60.1,41.0,49,30.21,10.0,WSW,8.1,-,N/A,,Clear,250,2013-10-10 14:53:00
11:53 AM,63.0,43.0,48,30.19,10.0,SW,4.6,-,N/A,,Clear,220,2013-10-10 15:53:00
12:53 PM,66.9,44.1,44,30.17,10.0,SSW,9.2,-,N/A,,Clear,200,2013-10-10 16:53:00
1:53 PM,69.1,44.1,40,30.16,10.0,SSW,8.1,-,N/A,,Clear,210,2013-10-10 17:53:00
2:53 PM,70.0,44.1,39,30.14,10.0,West,9.2,-,N/A,,Clear,270,2013-10-10 18:53:00
3:53 PM,69.1,44.1,40,30.14,10.0,WSW,8.1,-,N/A,,Clear,250,2013-10-10 19:53:00
4:53 PM,68.0,45.0,43,30.15,10.0,WSW,8.1,-,N/A,,Clear,240,2013-10-10 20:53:00
5:53 PM,66.9,45.0,45,30.15,10.0,WSW,3.5,-,N/A,,Clear,250,2013-10-10 21:53:00
6:53 PM,64.0,45.0,50,30.16,10.0,West,6.9,-,N/A,,Clear,270,2013-10-10 22:53:00
7:53 PM,63.0,45.0,52,30.16,10.0,West,8.1,-,N/A,,Clear,270,2013-10-10 23:53:00
8:53 PM,61.0,45.0,56,30.17,10.0,NW,8.1,-,N/A,,Clear,310,2013-10-11 00:53:00
9:53 PM,59.0,45.0,60,30.16,10.0,West,6.9,-,N/A,,Clear,280,2013-10-11 01:53:00
10:53 PM,59.0,45.0,60,30.16,10.0,NW,4.6,-,N/A,,Clear,310,2013-10-11 02:53:00
11:53 PM,59.0,46.0,62,30.15,10.0,West,5.8,-,N/A,,Clear,280,2013-10-11 03:53:00